Location: Althorst
(53.6379°N, 10.7715°E)
Time: 01:00:21
(UTC+00:00)

Cosmos 921 Rocket - Pass Details

Date: 10 December 2019
Orbit: 572 x 632 km, 75.8° (Epoch: 20 January)

Event Time Altitude Azimuth Distance (km) Brightness Sun altitude
Rises 16:27:59 0° 340° (NNW) 2,811 6.4 -12.4°
Reaches altitude 10° 16:30:18 10° 349° (NNW) 1,915 5.5 -12.7°
Maximum altitude 16:34:19 39° 59° (ENE) 891 3.4 -13.3°
Drops below altitude 10° 16:38:22 10° 129° (SE) 1,934 5.3 -13.8°
Sets 16:40:43 0° 137° (SE) 2,843 6.2 -14.2°
